This demonstration page uses our WeatherBlox Daily Observations layout. Learn more.

Left ArrowRight Arrow

Hourly Observations for June 23, 2015

Temp ( °F °C ) Dew Point ( °F °C ) Humidity (%) Winds ( mph kmh ) Pressure ( in mb ) Visibility ( mi km ) Precip ( " mm )
12:59 am 00:59 Partly Cloudy 57 13.9 43 6.1 60 60 S 7 11 30.04 1017 9 14 0.00 0.00
1:59 am 01:59 Mostly Clear 80 26.7 72 22.2 76 76 S 10 17 30.01 1016 9 14 0.00 0.00
2:59 am 02:59 Mostly Cloudy 80 26.7 74 23.3 82 82 S 6 9 30.02 1017 8 13 0.00 0.00
3:59 am 03:59 Mostly Cloudy 79 26.1 75 23.9 88 88 SSW 8 13 30.02 1017 7 11 0.00 0.00
4:59 am 04:59 Partly Cloudy with Mist and Fog 66 18.9 65 18.3 96 96 SSW 7 11 29.66 1004 6 10 0.19 4.83
5:59 am 05:59 Mostly Cloudy with Mist and Fog 47 8.3 45 7.2 93 93 SSW 6 9 30.03 1017 5 8 0.00 0.00
6:59 am 06:59 Mostly Cloudy with Mist and Fog 69 20.6 65 18.3 87 87 SW 8 13 29.98 1015 5 8 0.00 0.00
7:59 am 07:59 Mostly Cloudy with Haze 82 27.8 74 23.3 77 77 WSW 7 11 30.04 1017 6 10 0.00 0.00
8:59 am 08:59 Mostly Cloudy with Haze 85 29.4 75 23.9 72 72 SW 6 9 30.02 1017 6 10 0.00 0.00
9:59 am 09:59 Mostly Cloudy 89 31.7 74 23.3 61 61 SW 7 11 30.01 1016 7 11 0.00 0.00
10:59 am 10:59 Mostly Cloudy 92 33.3 73 22.8 54 54 WSW 8 13 29.99 1016 8 13 0.00 0.00
11:59 am 11:59 Mostly Cloudy 94 34.4 72 22.2 49 49 SW 8 13 29.98 1015 8 13 0.00 0.00
12:59 pm 12:59 Mostly Cloudy 95 35 74 23.3 51 51 SW 10 17 29.98 1015 7 11 0.00 0.00
1:59 pm 13:59 Mostly Cloudy 96 35.6 73 22.8 47 47 SW 9 15 29.97 1015 8 13 0.00 0.00
2:59 pm 14:59 Mostly Cloudy 96 35.6 72 22.2 46 46 SW 12 19 29.95 1014 8 13 0.00 0.00
3:59 pm 15:59 Mostly Cloudy 96 35.6 73 22.8 47 47 SSW 13 20 29.93 1014 7 11 0.00 0.00
4:59 pm 16:59 Mostly Cloudy 96 35.6 71 21.7 44 44 WSW 14 22 29.91 1013 8 13 0.00 0.00
5:59 pm 17:59 Mostly Cloudy 95 35 72 22.2 47 47 SW 9 15 29.88 1012 7 11 0.00 0.00
6:59 pm 18:59 Mostly Cloudy 93 33.9 73 22.8 52 52 SW 12 19 29.88 1012 7 11 0.00 0.00
7:59 pm 19:59 Mostly Cloudy 91 32.8 73 22.8 56 56 SW 8 13 29.91 1013 7 11 0.00 0.00
8:59 pm 20:59 Mostly Cloudy 89 31.7 74 23.3 61 61 SW 8 13 29.93 1014 8 13 0.00 0.00
9:59 pm 21:59 Mostly Cloudy 72 22.2 71 21.9 98 98 SSW 9 15 29.94 1014 8 13 0.00 0.00
10:59 pm 22:59 Partly Cloudy 87 30.6 75 23.9 67 67 SSW 10 17 29.93 1013 8 13 0.00 0.00
11:59 pm 23:59 Partly Cloudy 86 30 75 23.9 70 70 SSW 12 19 29.93 1014 8 13 0.00 0.00

Powered by AerisWeather